Lakehurst, NJ

1:13 AM EDT on July 26, 2016 (GMT -0400)
Lakehurst Naes

Weather History for KNEL - February, 2013

Change the Weather History Date:

Wednesday, February 27, 2013

  Actual Average Record
Temperature  
Mean Temperature 48 °F -  
Max Temperature 54 °F 43 °F 73 °F (1997)
Min Temperature 41 °F 31 °F 6 °F (2014)
Degree Days  
Heating Degree Days 18    
Moisture  
Dew Point 42 °F    
Average Humidity 84    
Maximum Humidity 96    
Minimum Humidity 59    
Precipitation  
Precipitation 0.00 in - - ()
Sea Level Pressure  
Sea Level Pressure 29.59 in    
Wind  
Wind Speed 15 mph (NNW)    
Max Wind Speed 24 mph    
Max Gust Speed 38 mph    
Averages and records for this station are not official NWS values.
T = Trace of Precipitation, MM = Missing Value Source: NWS Daily Summary

Daily Weather History Graph

Daily Weather History Graph

Search for Another Location

Airport or City:

Trip Planner

Search our weather history database for the weather conditions in past years. The results will help you decide how hot, cold, wet, or windy it might be!

Date:

Astronomy

Feb. 27, 2013 Rise Set
Actual Time 6:33 AM EST 5:47 PM EST
Civil Twilight 6:06 AM EST 6:14 PM EST
Nautical Twilight 5:34 AM EST 6:45 PM EST
Astronomical Twilight 5:03 AM EST 7:17 PM EST
Moon 8:05 PM EST (2/27) 7:07 AM EST (2/27)
Length of Visible Light 12h 08m
Length of Day
11h 13m
Waning Gibbous, 96% of the Moon is Illuminated
Feb 27
Waning Gibbous
Mar 4
Last Quarter
Mar 11
New
Mar 19
First Quarter
Mar 27
Full

Hourly Weather History & Observations

Time (EST) Temp. Windchill Dew Point Humidity Pressure Visibility Wind Dir Wind Speed Gust Speed Precip Events Conditions
12:00 AM 41.0 °F 31.1 °F 39.0 °F 93% 29.79 in - East 23.0 mph 35.7 mph N/A Rain Heavy Rain
1:00 AM 42.1 °F 32.8 °F 41.0 °F 96% 29.76 in - ENE 21.9 mph 32.2 mph N/A Rain Rain
2:00 AM 43.0 °F 33.5 °F 41.0 °F 93% 29.69 in - ENE 24.2 mph 38.0 mph N/A Rain Rain
5:00 AM 46.0 °F 39.9 °F 45.0 °F 96% 29.58 in - ENE 13.8 mph 18.4 mph N/A Rain Light Rain
5:18 AM 46.4 °F 40.7 °F 44.6 °F 93% 29.57 in - ENE 12.7 mph - N/A Rain Rain
6:00 AM 46.0 °F 41.4 °F 45.0 °F 96% 29.55 in - NE 9.2 mph - N/A Rain Light Rain
7:00 AM 46.0 °F 41.0 °F 45.0 °F 96% 29.52 in - NE 10.4 mph 17.3 mph N/A   Overcast
8:00 AM 48.0 °F - 46.9 °F 96% 29.49 in - ENE 13.8 mph - N/A   Overcast
9:00 AM 48.0 °F - 46.9 °F 96% 29.50 in - East 8.1 mph - N/A   Overcast
11:00 AM 52.0 °F - 50.0 °F 93% 29.50 in - SW 12.7 mph - N/A   Overcast
11:43 AM 53.6 °F - 48.2 °F 82% 29.51 in - WSW 15.0 mph 21.9 mph N/A   Overcast
1:00 PM 51.8 °F - 46.4 °F 82% 29.52 in - West 15.0 mph 26.5 mph N/A   Overcast
1:06 PM 50.0 °F - 45.0 °F 83% 29.52 in - West 16.1 mph 24.2 mph N/A   Overcast
2:00 PM 53.1 °F - 43.0 °F 69% 29.52 in - WNW 20.7 mph 27.6 mph N/A   Mostly Cloudy
2:29 PM 51.8 °F - 41.0 °F 67% 29.54 in - WNW 17.3 mph 26.5 mph N/A   Scattered Clouds
3:00 PM 54.0 °F - 39.9 °F 59% 29.55 in - WNW 18.4 mph 27.6 mph N/A   Scattered Clouds
4:00 PM 51.1 °F - 39.0 °F 63% 29.58 in - WNW 15.0 mph - N/A   Mostly Cloudy
5:00 PM 48.9 °F - 37.0 °F 64% 29.60 in - West 8.1 mph 19.6 mph N/A   Overcast
6:00 PM 48.0 °F - 37.0 °F 66% 29.62 in - West 5.8 mph - N/A   Overcast
8:00 PM 41.0 °F - 37.9 °F 89% 29.65 in - Calm Calm - N/A   Overcast
9:00 PM 42.1 °F - 37.0 °F 82% 29.66 in - Calm Calm - N/A   Overcast
10:00 PM 42.1 °F - 37.9 °F 85% 29.66 in - Calm Calm - N/A   Overcast
11:00 PM 42.1 °F - 39.0 °F 89% 29.65 in - Calm Calm - N/A   Overcast